Other Surface Observations
Issued by NWS

Home | Current Version | Previous Version | Text Only | Print | Product List | Glossary On
Versions: 1 2 3 4 5 6 7 8 9 10 11 12 13 14 15 16 17 18 19 20 21 22 23 24 25 26 27 28 29 30 31 32 33 34 35 36 37 38 39 40 41 42 43 44 45 46 47 48 49 50
000
SXUS52 KTAE 230218
OSOTAE
OSOTAE
North Florida/South Alabama/Southwest Georgia Weather Roundup
National Weather Service Tallahassee Florida
1000 PM EDT FRI AUG 22 2014

Note: "fair" indicates few or no clouds below 12,000 feet with no
significant weather and/or obstructions to visibility.

!FLZ017-115-028-034-025-230300
...North Florida...

CITY           SKY/WX    TMP DP  RH WIND       PRES   REMARKS
TALLAHASSEE    CLEAR     80  73  79 CALM      30.01R
APALACHICOLA   CLEAR     78  74  87 CALM      30.01R
PERRY          CLEAR     81  77  89 CALM      30.01S
CROSS CITY       N/A     82  77  84 CALM      30.00S HX  90
HOMERVILLE     FAIR      84  77  79 CALM      30.00R HX  94
JACKSONVILLE   CLEAR     81  74  79 CALM      29.98S
$$

!FLZ112-006-005-002-011-230300
...Florida Panhandle...

CITY           SKY/WX    TMP DP  RH WIND       PRES   REMARKS
MARIANNA       PTCLDY    82  78  88 SW3       30.00R HX  91
BONIFAY        LGT RAIN  79  77  94 CALM      30.01S
PANAMA CITY NW FAIR      84  79  85 CALM      30.00R HX  96
TYNDALL AFB    CLEAR     78  78 100 S2        30.02R
TYND DRONE APT NOT AVBL
DE FUNIAK SPR  CLOUDY    83  76  80 S6        30.02R HX  91
EGLIN AFB      MOCLDY    85  76  73 W6        30.00R HX  95
DESTIN         PTCLDY    87  80  79 SW7       30.00R HX 103
HURLBURT       PTCLDY    86  74  67 W7        30.00R HX  94
CRESTVIEW      PTCLDY    82  76  81 CALM      30.02R
PENSACOLA      CLEAR     84  74  71 W8        30.00S HX  91
$$

!ALZ063-066-230300
...South Alabama...

CITY           SKY/WX    TMP DP  RH WIND       PRES   REMARKS
DOTHAN         PTCLDY    83  74  74 CALM      30.04R
OZARK CAIRNS   PTCLDY    86  74  66 NW3       30.00S HX  94
FT RUCKER HELI PTCLDY    81  74  79 CALM      29.99S
RUCKER HELI 3  FAIR      83  74  76 NW2       30.03S
RUCKER HELI 2  FAIR      83  74  74 CALM      30.00S
FLORALA APT    PTCLDY    83  75  77 CALM      30.03R HX  90
ANDALUSIA      PTCLDY    86  77  74 CALM      30.01R HX  97
TROY           CLEAR     81  77  88 CALM      30.02R
EUFALA         FAIR      78  75  90 CALM      30.00R
MOBILE         PTCLDY    83  76  79 SW5       30.02S HX  91
$$

!GAZ120>161-230300
...Southwest and South Central Georgia...

CITY           SKY/WX    TMP DP  RH WIND       PRES   REMARKS
THOMASVILLE    FAIR      84  73  70 SW5       30.01R HX  91
BAINBRIDGE     PTCLDY    82  79  89 CALM      30.00R HX  93
MOODY AFB      CLEAR     84  74  72 CALM      30.00R HX  91
VALDOSTA       CLEAR     81  73  76 CALM      29.99R
MOULTRIE       CLEAR     82  75  78 CALM      30.00S
BLAKELY        CLEAR     82  77  83 CALM        N/A  HX  91
ALBANY         CLEAR     84  74  71 CALM      30.01R HX  91
TIFTON         FAIR      83  70  65 CALM      29.99S
FITZGERALD     FAIR      83  76  79 CALM      30.02R HX  91
CORDELE        FAIR      80  78  93 CALM      30.00S
AMERICUS       FAIR      81  73  78 CALM      30.02S
$$

!GMZ750-755-770-775-230300
...Coastal and Buoy Obs...

STATION/POSITION TIME  TEMP    WIND        PRES    VSBY  WAVE
                       AIR SEA DIR/SP/G                  HT/PER
                 (UTC) (F)     (DEG/KT/KT) (MB)    (MI)  (FT/S)
KEATON BEACH     0200   86     270/  8/  9 1016.1R
CEDAR KEY        0200   85      90/  3/  4 1016.5R
C TOWER          0200   83     320/  7/  8 1016.3R
APALACHICOLA BUO 0200   85 87  320/  4/  4 1016.2R         1
PANAMA CITY BUOY 0101   86 88   CALM  /  2 1016.6          1/ 8
MOBILE BUOY      0100   86 90  150/  2/  2 1016.6
ORANGE BCH AL BU 0200   87 87  240/  8/ 10 1016.3R         1
$$



USA.gov is the U.S. government's official web portal to all federal, state and local government web resources and services.